NILESAT 102

Last updated on Aug. 17, 2018, 12:20 a.m. UTC

1 26470U 00046B   18228.11332477 -.00000039  00000-0  00000+0 0  9990
2 26470   2.5729  81.7587 0004404  28.5163 156.8120  0.98041313 65923
UTC
Height (km)
Latitude
Longitude
Inclination
Orbital Period
UTC large
Height (km)
Speed (km/s)
/
Latitude / Longitude
Inclination (degrees)
Orbital Period (minutes)
Azimuth
Elevation
Range (km)
Doppler Factor
iOS Compass Heading
iOS Angle

Next 30 passes for location: Hong Kong

Rise time Rise Azimuth (degrees) Set time Set Azimuth (degrees) Duration Max altitude (degrees)

No matching passes for this satellites